Location: Unspecified
(0.0000°N, 0.0000°E)
Time: 00:43:20
(UTC+00:00)

Tiros 1 - All Passes

Search period start: 23 July 2017 00:00
Search period end: 02 August 2017 00:00
Orbit: 631 x 664 km, 48.4° (Epoch: 22 July)

Date Brightness Start Highest point End Pass type
(mag) Time Alt. Az. Time Alt. Az. Time Alt. Az.
23 Jul - 08:33:36 10° NNE 08:35:34 12° NE 08:37:34 10° ENE daylight
23 Jul - 10:12:59 10° NW 10:17:40 54° SW 10:22:21 10° SSE daylight
23 Jul - 20:45:17 10° S 20:48:48 21° SE 20:52:18 10° E night (unlit)
23 Jul - 22:26:52 10° WSW 22:30:50 28° NW 22:34:47 10° N night (unlit)
24 Jul - 08:57:20 10° NNW 09:01:47 39° NE 09:06:16 10° ESE daylight
24 Jul - 10:40:46 10° W 10:43:52 17° SW 10:46:59 10° S daylight
24 Jul - 21:10:21 10° SSW 21:14:58 72° SE 21:19:34 10° NE night (unlit)
25 Jul - 07:44:36 10° NE 07:45:50 11° NE 07:47:05 10° ENE daylight
25 Jul - 09:23:13 10° NW 09:27:56 61° SW 09:32:41 10° SSE daylight
25 Jul - 19:55:47 10° S 19:59:05 19° SE 20:02:21 10° E night (unlit)
25 Jul - 21:36:59 10° WSW 21:41:07 32° NW 21:45:13 10° NNE night (unlit)
26 Jul - 08:07:43 10° NNW 08:12:03 35° NE 08:16:25 10° ESE daylight
26 Jul - 09:50:45 10° W 09:54:08 19° SW 09:57:31 10° S daylight
26 Jul - 20:20:40 10° SSW 20:25:16 64° SE 20:29:50 10° NE visible
27 Jul - 08:33:27 10° NW 08:38:12 69° SW 08:42:59 10° SSE daylight
27 Jul - 19:06:19 10° S 19:09:22 17° SE 19:12:21 10° E visible
27 Jul - 20:47:09 10° WSW 20:51:24 36° NW 20:55:37 10° NNE visible
28 Jul - 07:18:08 10° N 07:22:19 31° NE 07:26:33 10° ESE daylight
28 Jul - 09:00:47 10° W 09:04:23 21° SW 09:08:01 10° S daylight
28 Jul - 19:30:59 10° SSW 19:35:33 56° SE 19:40:05 10° NE visible
28 Jul - 21:16:24 10° WNW 21:17:37 11° NW 21:18:50 10° NW visible
29 Jul - 07:43:43 10° NW 07:48:28 78° SW 07:53:16 10° SE daylight
29 Jul - 18:16:54 10° SSE 18:19:38 15° SE 18:22:19 10° E daylight
29 Jul - 19:57:19 10° WSW 20:01:41 40° NW 20:06:01 10° NNE visible
30 Jul - 06:28:34 10° N 06:32:35 27° NE 06:36:39 10° ESE daylight
30 Jul - 08:10:51 10° WNW 08:14:38 23° SW 08:18:29 10° S daylight
30 Jul - 18:41:19 10° SSW 18:45:50 49° SE 18:50:19 10° NE visible
30 Jul - 20:25:56 10° WNW 20:27:53 12° NW 20:29:50 10° NNW visible
31 Jul - 06:53:59 10° NW 06:58:44 88° SW 07:03:33 10° SE daylight
31 Jul - 17:27:33 10° SSE 17:29:54 14° SE 17:32:13 10° E daylight
31 Jul - 19:07:30 10° SW 19:11:58 46° NW 19:16:24 10° NNE visible
01 Aug - 05:39:01 10° N 05:42:52 25° NE 05:46:44 10° ESE visible
01 Aug - 07:20:56 10° WNW 07:24:54 26° SW 07:28:55 10° S daylight
01 Aug - 17:51:40 10° SSW 17:56:07 44° SE 18:00:32 10° ENE daylight
01 Aug - 19:35:42 10° W 19:38:09 14° NW 19:40:36 10° NNW visible
